• Em Portugal
  • Lista de países
  • Para 7 dias
  • Temperatura da água
  • Mapas de satélite
  • Mapa do tempo
  • Widgets de tempo
  • user-avatar
    Iniciar Sessão

    Previsão horária em Bulgan

    Hoje, 18 Junho, Segunda-feira

    Tempo Temperatura Precipitação Vento Pressão Humidade
    00:00 +10°C° 0 mm 1 m/s 627 mmHg 87%
    01:00 +10°C° 0 mm 1 m/s 627 mmHg 88%
    02:00 +10°C° 0 mm 1 m/s 627 mmHg 89%
    03:00 +10°C° 0 mm 1 m/s 627 mmHg 89%
    04:00 +8°C° 0 mm 0 m/s 627 mmHg 90%
    05:00 +10°C° 0 mm 0 m/s 628 mmHg 86%
    06:00 +12°C° 0 mm 1 m/s 628 mmHg 82%
    07:00 +13°C° 0 mm 1 m/s 629 mmHg 78%
    08:00 +14°C° 0,2 mm 1 m/s 629 mmHg 71%
    09:00 +16°C° 0,2 mm 2 m/s 629 mmHg 64%
    10:00 +17°C° 0,2 mm 2 m/s 630 mmHg 58%
    11:00 +18°C° 0,2 mm 2 m/s 630 mmHg 55%
    12:00 +18°C° 0,2 mm 2 m/s 630 mmHg 52%
    13:00 +19°C° 0,2 mm 2 m/s 630 mmHg 49%
    14:00 +19°C° 0,2 mm 2 m/s 629 mmHg 49%
    15:00 +19°C° 0,2 mm 2 m/s 629 mmHg 48%
    16:00 +19°C° 0,2 mm 2 m/s 629 mmHg 48%
    17:00 +18°C° 0 mm 2 m/s 629 mmHg 53%
    18:00 +17°C° 0 mm 2 m/s 629 mmHg 58%
    19:00 +16°C° 0 mm 2 m/s 629 mmHg 63%
    20:00 +15°C° 0 mm 2 m/s 629 mmHg 64%
    21:00 +14°C° 0 mm 2 m/s 629 mmHg 65%
    22:00 +12°C° 0 mm 2 m/s 629 mmHg 67%
    23:00 +12°C° 0 mm 1 m/s 628 mmHg 68%

    Amanhã, 19 Junho, Terça-feira

    Tempo Temperatura Precipitação Vento Pressão Humidade
    00:00 +11°C° 0 mm 1 m/s 628 mmHg 68%
    01:00 +11°C° 0 mm 1 m/s 628 mmHg 69%
    02:00 +10°C° 0 mm 1 m/s 628 mmHg 69%
    03:00 +10°C° 0 mm 1 m/s 627 mmHg 69%
    04:00 +10°C° 0 mm 1 m/s 627 mmHg 69%
    05:00 +11°C° 0 mm 1 m/s 628 mmHg 66%
    06:00 +13°C° 0 mm 1 m/s 628 mmHg 62%
    07:00 +14°C° 0 mm 2 m/s 629 mmHg 58%
    08:00 +16°C° 0 mm 2 m/s 629 mmHg 53%
    09:00 +17°C° 0 mm 3 m/s 629 mmHg 49%
    10:00 +19°C° 0 mm 3 m/s 629 mmHg 44%
    11:00 +20°C° 0 mm 4 m/s 629 mmHg 43%
    12:00 +21°C° 0 mm 4 m/s 628 mmHg 42%
    13:00 +22°C° 0 mm 4 m/s 628 mmHg 41%
    14:00 +22°C° 0 mm 3 m/s 628 mmHg 41%
    15:00 +22°C° 0 mm 3 m/s 628 mmHg 42%
    16:00 +24°C° 0 mm 3 m/s 628 mmHg 42%
    17:00 +21°C° 0 mm 3 m/s 627 mmHg 48%
    18:00 +20°C° 0 mm 2 m/s 626 mmHg 54%
    19:00 +19°C° 0 mm 2 m/s 626 mmHg 60%
    20:00 +18°C° 0,3 mm 2 m/s 625 mmHg 61%
    21:00 +18°C° 0,3 mm 1 m/s 625 mmHg 62%
    22:00 +16°C° 0,3 mm 1 m/s 625 mmHg 64%
    23:00 +16°C° 0,1 mm 1 m/s 625 mmHg 63%

    Depois de amanhã, 20 Junho, Quarta-feira

    Tempo Temperatura Precipitação Vento Pressão Humidade
    00:00 +15°C° 0,1 mm 1 m/s 624 mmHg 63%
    01:00 +15°C° 0,1 mm 1 m/s 624 mmHg 63%
    02:00 +15°C° 0 mm 1 m/s 624 mmHg 64%
    03:00 +14°C° 0 mm 1 m/s 623 mmHg 65%
    04:00 +14°C° 0 mm 1 m/s 623 mmHg 67%
    05:00 +15°C° 0 mm 1 m/s 624 mmHg 65%
    06:00 +18°C° 0 mm 1 m/s 624 mmHg 62%
    07:00 +19°C° 0 mm 1 m/s 624 mmHg 60%
    08:00 +21°C° 0 mm 1 m/s 624 mmHg 54%
    09:00 +23°C° 0 mm 1 m/s 624 mmHg 47%
    10:00 +24°C° 0 mm 2 m/s 624 mmHg 41%
    11:00 +25°C° 0 mm 2 m/s 624 mmHg 38%
    12:00 +26°C° 0 mm 3 m/s 624 mmHg 36%
    13:00 +27°C° 0 mm 3 m/s 624 mmHg 34%
    14:00 +26°C° 0,2 mm 3 m/s 624 mmHg 39%
    15:00 +26°C° 0,2 mm 3 m/s 624 mmHg 43%
    16:00 +25°C° 0,2 mm 4 m/s 623 mmHg 48%
    17:00 +22°C° 0,3 mm 3 m/s 623 mmHg 56%
    18:00 +21°C° 0,3 mm 3 m/s 623 mmHg 63%
    19:00 +19°C° 0,3 mm 2 m/s 623 mmHg 71%
    20:00 +18°C° 0,9 mm 3 m/s 623 mmHg 78%
    21:00 +16°C° 0,9 mm 3 m/s 623 mmHg 85%
    22:00 +14°C° 0,9 mm 3 m/s 623 mmHg 92%
    23:00 +13°C° 0,6 mm 3 m/s 623 mmHg 92%

    21 Junho, Quinta-feira

    Tempo Temperatura Precipitação Vento Pressão Humidade
    00:00 +13°C° 0,6 mm 3 m/s 623 mmHg 92%
    01:00 +13°C° 0,6 mm 3 m/s 623 mmHg 92%
    02:00 +13°C° 0,3 mm 2 m/s 624 mmHg 93%
    03:00 +13°C° 0,3 mm 2 m/s 624 mmHg 93%
    04:00 +13°C° 0,3 mm 2 m/s 624 mmHg 93%
    05:00 +13°C° 0,1 mm 2 m/s 624 mmHg 91%
    06:00 +13°C° 0,1 mm 2 m/s 625 mmHg 90%
    07:00 +13°C° 0,1 mm 2 m/s 625 mmHg 88%
    08:00 +13°C° 0,1 mm 3 m/s 625 mmHg 83%
    09:00 +14°C° 0,1 mm 3 m/s 625 mmHg 78%
    10:00 +16°C° 0,1 mm 3 m/s 626 mmHg 72%
    11:00 +17°C° 0,1 mm 3 m/s 626 mmHg 68%
    12:00 +17°C° 0,1 mm 3 m/s 626 mmHg 65%
    13:00 +18°C° 0,1 mm 4 m/s 626 mmHg 61%
    14:00 +19°C° 0 mm 4 m/s 626 mmHg 58%
    15:00 +19°C° 0 mm 4 m/s 626 mmHg 56%
    16:00 +20°C° 0 mm 4 m/s 627 mmHg 53%
    17:00 +19°C° 0 mm 4 m/s 626 mmHg 59%
    18:00 +18°C° 0 mm 3 m/s 626 mmHg 64%
    19:00 +16°C° 0 mm 3 m/s 626 mmHg 70%
    20:00 +15°C° 0 mm 2 m/s 626 mmHg 75%
    21:00 +14°C° 0 mm 2 m/s 626 mmHg 81%
    22:00 +12°C° 0 mm 1 m/s 626 mmHg 87%
    23:00 +12°C° 0 mm 1 m/s 626 mmHg 89%

    22 Junho, Sexta-feira

    Tempo Temperatura Precipitação Vento Pressão Humidade
    00:00 +11°C° 0 mm 1 m/s 626 mmHg 91%
    01:00 +11°C° 0 mm 1 m/s 625 mmHg 93%
    02:00 +11°C° 0 mm 1 m/s 625 mmHg 93%
    03:00 +11°C° 0 mm 1 m/s 625 mmHg 93%
    04:00 +11°C° 0 mm 1 m/s 625 mmHg 93%
    05:00 +11°C° 0 mm 1 m/s 626 mmHg 89%
    06:00 +12°C° 0 mm 1 m/s 626 mmHg 86%
    07:00 +13°C° 0 mm 1 m/s 627 mmHg 83%
    08:00 +14°C° 0 mm 1 m/s 627 mmHg 80%
    09:00 +14°C° 0 mm 2 m/s 627 mmHg 76%
    10:00 +15°C° 0 mm 2 m/s 627 mmHg 73%
    11:00 +15°C° 0,2 mm 2 m/s 626 mmHg 72%
    12:00 +16°C° 0,2 mm 2 m/s 626 mmHg 71%
    13:00 +16°C° 0,2 mm 2 m/s 626 mmHg 70%
    14:00 +17°C° 0,1 mm 2 m/s 626 mmHg 69%
    15:00 +17°C° 0,1 mm 2 m/s 626 mmHg 68%
    16:00 +17°C° 0,1 mm 3 m/s 626 mmHg 68%
    17:00 +17°C° 0,2 mm 2 m/s 626 mmHg 71%
    18:00 +16°C° 0,2 mm 2 m/s 626 mmHg 74%
    19:00 +16°C° 0,2 mm 2 m/s 626 mmHg 77%
    20:00 +15°C° 0,2 mm 1 m/s 625 mmHg 79%
    21:00 +14°C° 0,2 mm 1 m/s 625 mmHg 81%
    22:00 +13°C° 0,2 mm 1 m/s 625 mmHg 84%
    23:00 +13°C° 0,1 mm 1 m/s 625 mmHg 84%

    23 Junho, Sábado

    Tempo Temperatura Precipitação Vento Pressão Humidade
    00:00 +13°C° 0,1 mm 1 m/s 625 mmHg 84%
    01:00 +13°C° 0,1 mm 1 m/s 625 mmHg 84%
    02:00 +13°C° 0,1 mm 1 m/s 625 mmHg 85%
    03:00 +12°C° 0,1 mm 1 m/s 625 mmHg 86%
    04:00 +12°C° 0,1 mm 1 m/s 625 mmHg 87%
    05:00 +13°C° 0 mm 1 m/s 625 mmHg 85%
    06:00 +13°C° 0 mm 1 m/s 625 mmHg 83%
    07:00 +14°C° 0 mm 1 m/s 625 mmHg 81%
    08:00 +15°C° 0 mm 1 m/s 626 mmHg 77%
    09:00 +16°C° 0 mm 1 m/s 626 mmHg 72%
    10:00 +17°C° 0 mm 2 m/s 626 mmHg 68%
    11:00 +17°C° 0,3 mm 2 m/s 626 mmHg 67%
    12:00 +18°C° 0,3 mm 2 m/s 626 mmHg 66%
    13:00 +18°C° 0,3 mm 2 m/s 626 mmHg 65%
    14:00 +18°C° 0,5 mm 2 m/s 626 mmHg 66%
    15:00 +18°C° 0,5 mm 2 m/s 626 mmHg 66%
    16:00 +18°C° 0,5 mm 2 m/s 626 mmHg 67%
    17:00 +18°C° 0,7 mm 2 m/s 626 mmHg 72%
    18:00 +17°C° 0,7 mm 2 m/s 626 mmHg 76%
    19:00 +16°C° 0,7 mm 1 m/s 626 mmHg 81%
    20:00 +15°C° 0,2 mm 1 m/s 626 mmHg 84%
    21:00 +14°C° 0,2 mm 1 m/s 625 mmHg 87%
    22:00 +13°C° 0,2 mm 1 m/s 625 mmHg 90%
    23:00 +12°C° 0 mm 1 m/s 625 mmHg 91%
    Mostrar mais